{"data":{"norad_id":66896,"epoch":"2026-05-24T22:47:36.877632Z","epoch_age_seconds":89827,"freshness":"FRESH","line1":"1 66896U 25283U   26144.94973238  .00018220  00000+0  62554-3 0  9994","line2":"2 66896  53.1592  29.6815 0001192  75.9662 284.1471 15.30212355 27521","mean_motion":15.30212355,"eccentricity":0.0001192,"inclination_deg":53.1592,"raan_deg":29.6815,"arg_perigee_deg":75.9662,"mean_anomaly_deg":284.1471,"bstar":0.00062554,"rev_number":2752,"period_min":94.104585895858,"perigee_km":474.3612646951,"apogee_km":475.99509503398,"semimajor_km":6853.3151798645,"source":"CELESTRAK","updated_at":"2026-05-25T13:38:21.381988Z"}}